CW0179 Weather Reports


time (UTC)temp
F
wind
direction
speed
knots
gust
knots
rain 1hr
in
rain 24hr
in
rain mn
in
humidity
%
barometer
mb
20260831231856 72 165 0.0 0.0 0.00 0.06 0.00 87 1017.5
20260831230822 73 165 0.0 0.0 0.00 0.06 0.00 87 1017.6
20260831225843 73 165 0.0 0.0 0.00 0.06 0.00 87 1017.6
20260831224902 73 165 0.0 0.0 0.00 0.06 0.00 86 1017.7
20260831223852 73 165 0.0 0.0 0.00 0.06 0.00 85 1017.6
20260831222912 74 165 0.0 0.0 0.00 0.06 0.00 85 1017.7
20260831220748 74 133 0.0 0.0 0.00 0.06 0.00 84 1017.7
20260831215810 74 132 0.0 0.0 0.00 0.06 0.00 82 1017.7
20260831214757 75 121 0.0 0.0 0.00 0.06 0.00 81 1017.8
20260831213734 75 120 0.0 0.0 0.00 0.06 0.00 80 1017.7
20260831212735 75 132 0.0 0.0 0.00 0.06 0.00 79 1017.7
20260831211747 76 86 0.0 0.0 0.00 0.06 0.00 79 1017.6
20260831205624 77 86 0.0 0.0 0.00 0.06 0.00 77 1017.7
20260831204635 77 54 0.0 1.7 0.00 0.06 0.00 75 1017.7
20260831203621 77 110 0.0 0.0 0.00 0.06 0.00 75 1017.6
20260831202635 78 354 0.0 0.0 0.00 0.06 0.00 75 1017.7
20260831201628 78 354 0.0 0.0 0.00 0.06 0.00 75 1017.8
20260831200651 78 354 0.0 0.0 0.00 0.06 0.00 74 1017.9
20260831195712 79 354 0.0 0.0 0.00 0.06 0.00 71 1018.1
20260831194653 79 218 0.0 1.7 0.00 0.06 0.00 69 1018.1
20260831193642 80 155 0.0 0.0 0.00 0.06 0.00 69 1018.1
20260831192656 80 150 0.0 0.0 0.00 0.06 0.00 67 1018.1
20260831191627 81 78 0.0 6.1 0.00 0.06 0.00 66 1018.4
20260831190640 81 104 0.0 1.7 0.00 0.06 0.00 67 1018.6
20260831185645 82 122 0.0 0.9 0.00 0.06 0.00 66 1018.5
20260831184645 81 57 0.0 1.7 0.00 0.06 0.00 64 1018.4
20260831183649 81 340 0.0 2.6 0.00 0.06 0.00 64 1018.6
20260831182629 81 349 0.0 2.6 0.00 0.06 0.00 61 1018.8
20260831181605 79 235 0.0 1.7 0.00 0.06 0.00 60 1018.9
20260831180543 79 197 0.0 2.6 0.00 0.06 0.00 59 1019.1
20260831175521 80 349 0.0 3.5 0.00 0.06 0.00 61 1019.2
20260831174541 80 110 0.0 0.0 0.00 0.06 0.00 62 1019.2
20260831173534 80 89 0.0 0.9 0.00 0.06 0.00 61 1019.1
20260831172516 79 89 0.0 4.3 0.00 0.06 0.00 60 1019.0
20260831170340 79 132 0.0 0.0 0.00 0.06 0.00 65 1019.1
20260831165400 79 103 0.0 4.3 0.00 0.06 0.00 64 1019.1
20260831164415 78 181 0.9 4.3 0.00 0.06 0.00 66 1019.2
20260831163436 79 287 0.0 3.5 0.00 0.06 0.00 65 1019.4
20260831162439 79 118 0.0 4.3 0.00 0.06 0.00 63 1019.5
20260831161415 79 355 0.0 4.3 0.00 0.06 0.00 64 1019.5
20260831160437 79 265 0.0 1.7 0.00 0.06 0.00 67 1019.5
20260831155405 78 107 0.0 1.7 0.00 0.06 0.00 65 1019.4
20260831154347 77 84 0.0 1.7 0.00 0.06 0.00 68 1019.5
20260831153320 77 105 0.0 1.7 0.00 0.06 0.00 67 1019.6
20260831152323 78 129 0.0 4.3 0.00 0.06 0.00 69 1019.5
20260831151341 79 111 0.0 4.3 0.00 0.06 0.00 68 1019.5
20260831150330 79 14 0.0 1.7 0.00 0.06 0.00 67 1019.5
20260831145327 77 154 0.0 1.7 0.00 0.06 0.00 61 1019.5
20260831143229 77 190 0.0 0.0 0.00 0.06 0.00 72 1019.5
20260831142240 76 263 0.9 3.5 0.00 0.06 0.00 73 1019.4
20260831140120 75 33 0.0 1.7 0.00 0.06 0.00 77 1019.3
20260831135058 74 235 0.0 0.9 0.00 0.06 0.00 80 1019.3
20260831134106 74 160 0.0 2.6 0.00 0.06 0.00 80 1019.3
20260831133046 74 200 0.0 1.7 0.00 0.06 0.00 83 1019.3
20260831132052 72 305 0.0 3.5 0.00 0.06 0.00 84 1019.3
20260831131025 72 82 0.0 0.9 0.00 0.06 0.00 88 1019.1
20260831130002 70 153 0.0 0.0 0.00 0.06 0.00 89 1019.1
20260831125000 70 183 0.0 0.0 0.00 0.06 0.00 90 1019.3
20260831123942 70 183 0.0 0.0 0.00 0.06 0.00 90 1019.2
20260831121829 69 218 0.0 0.0 0.00 0.06 0.00 92 1019.2
20260831120802 68 184 0.0 0.0 0.00 0.06 0.00 95 1019.2
20260831115748 67 191 0.0 0.0 0.00 0.06 0.00 95 1019.2
20260831114715 67 166 0.0 0.0 0.00 0.06 0.00 96 1019.0
20260831113719 66 184 0.0 0.0 0.00 0.06 0.00 97 1019.0
20260831082506 66 169 0.0 0.0 0.00 0.06 0.00 98 1018.0
20260831081504 67 172 0.0 0.0 0.00 0.06 0.00 98 1017.9
20260831080504 67 170 0.0 0.0 0.00 0.06 0.00 98 1018.0
20260831075521 67 172 0.0 0.0 0.00 0.06 0.00 98 1017.8
20260831074508 67 172 0.0 0.0 0.00 0.06 0.00 98 1017.9
20260831073443 67 172 0.0 0.0 0.00 0.06 0.00 98 1017.9
20260831072409 67 172 0.0 0.0 0.00 0.06 0.00 98 1018.0
20260831071430 67 172 0.0 0.0 0.00 0.06 0.00 98 1017.9
20260831070430 68 172 0.0 0.0 0.00 0.06 0.00 98 1018.1
20260831065448 68 172 0.0 0.0 0.00 0.06 0.00 97 1018.0
20260831064437 68 172 0.0 0.0 0.00 0.06 0.00 97 1017.9
20260831063421 69 172 0.0 0.0 0.00 0.06 0.00 97 1017.8
20260831061309 69 172 0.0 0.0 0.00 0.06 0.00 97 1017.8
20260831060331 69 172 0.0 0.9 0.00 0.06 0.00 97 1017.8
20260831055344 70 155 0.0 0.0 0.00 0.06 0.00 97 1017.7
20260831054407 70 155 0.0 0.0 0.00 0.06 0.00 98 1017.5
20260831053403 70 155 0.0 0.0 0.00 0.06 0.00 98 1017.5
20260831052406 70 155 0.0 0.0 0.00 0.06 0.00 97 1017.4
20260831051419 70 155 0.0 0.0 0.00 0.06 0.00 98 1017.4
20260831050439 70 155 0.0 0.0 0.00 0.06 0.00 98 1017.4
20260831044257 70 155 0.0 0.0 0.00 0.06 0.00 98 1017.3
20260831043228 71 155 0.0 0.0 0.00 0.06 0.00 98 1017.3
20260831042237 71 155 0.0 0.0 0.00 0.06 0.00 98 1017.2
20260831041300 71 155 0.0 0.0 0.00 0.06 0.00 98 1017.3
20260831040321 71 155 0.0 0.0 0.00 0.06 0.00 97 1017.1
20260831035252 71 155 0.0 0.0 0.00 0.06 0.06 97 1017.2
20260831034249 71 155 0.0 0.0 0.00 0.06 0.06 97 1017.2
20260831033230 71 155 0.0 0.0 0.00 0.06 0.06 97 1017.4
20260831032209 72 155 0.0 0.0 0.00 0.06 0.06 97 1017.6
20260831030031 72 155 0.0 0.0 0.00 0.06 0.06 97 1017.8
20260831025035 72 155 0.0 0.0 0.00 0.06 0.06 97 1017.8
20260831024017 72 155 0.0 0.0 0.00 0.06 0.06 97 1017.7
20260831023007 72 155 0.0 0.0 0.00 0.06 0.06 97 1017.8
20260831021950 72 155 0.0 0.0 0.00 0.06 0.06 97 1017.8
20260831020945 72 155 0.0 0.0 0.00 0.06 0.06 97 1017.8
20260831015957 72 155 0.0 0.0 0.00 0.06 0.06 96 1017.8
20260831015011 72 155 0.0 0.0 0.05 0.06 0.06 96 1017.7
20260831014022 72 155 0.0 0.0 0.05 0.04 0.06 96 1017.7
20260831013042 73 155 0.0 0.0 0.04 0.04 0.05 96 1017.7
20260831012016 73 80 0.0 0.0 0.04 0.04 0.04 96 1017.6
20260831011033 73 80 0.0 0.0 0.04 0.03 0.04 95 1017.6
20260831004849 73 150 0.0 0.0 0.04 0.02 0.02 95 1017.4
20260831003904 73 150 0.0 0.0 0.00 0.01 0.01 94 1017.4
20260831002909 74 151 0.0 0.0 0.00 0.00 0.01 93 1017.2
20260831000758 74 150 0.0 0.0 0.00 0.00 0.00 91 1016.9
20260830235750 74 150 0.0 0.0 0.00 0.00 0.00 91 1016.8
20260830234728 75 150 0.0 0.0 0.00 0.00 0.00 90 1016.6
20260830233657 75 150 0.0 0.0 0.00 0.00 0.00 89 1016.6
20260830232707 75 150 0.0 0.0 0.00 0.00 0.00 88 1016.5